Date,TemperatureHighF,TemperatureAvgF,TemperatureLowF,DewpointHighF,DewpointAvgF,DewpointLowF,HumidityHigh,HumidityAvg,HumidityLow,PressureMaxIn,PressureMinIn,WindSpeedMaxMPH,WindSpeedAvgMPH,GustSpeedMaxMPH,PrecipitationSumIn
2012-12-1,68.0,58.0,49.3,56.0,50.9,46.0,90,78,63,30.39,30.30,3,0,7,0.00
2012-12-2,73.3,51.3,53.2,60.0,26.5,-99.9,89,63,62,30.38,30.26,6,0,6,0.01
2012-12-3,73.8,60.3,52.8,62.0,54.9,51.0,97,84,51,30.34,30.24,4,0,7,0.00
2012-12-4,70.9,60.0,51.8,61.0,55.9,50.0,97,87,71,30.36,30.23,2,0,6,0.00
2012-12-5,73.0,63.3,55.2,60.0,56.5,53.0,94,80,60,30.23,30.11,6,0,10,0.00
2012-12-6,60.7,55.9,48.5,57.0,49.4,41.0,90,79,68,30.21,30.13,5,0,11,0.00
2012-12-7,59.6,51.6,46.7,53.0,46.2,40.0,91,82,74,30.15,30.01,6,0,8,0.03
2012-12-8,65.4,53.9,42.9,57.0,50.0,41.0,97,87,72,30.11,30.02,0,0,5,0.00
2012-12-9,69.1,60.2,55.7,64.0,58.2,54.0,98,93,82,30.13,30.00,4,0,5,0.00
2012-12-10,72.5,62.8,56.4,62.0,58.8,55.0,97,88,67,29.99,29.76,4,0,11,0.02
2012-12-11,60.3,56.8,50.7,58.0,50.1,42.0,96,79,67,30.12,29.77,3,0,10,0.00
2012-12-12,50.5,46.5,40.8,45.0,42.4,40.0,95,86,73,30.27,30.10,7,1,14,0.86
2012-12-13,50.5,43.1,39.1,42.0,39.3,36.0,95,87,72,30.37,30.22,11,1,15,0.02
2012-12-14,57.3,44.3,34.4,42.0,37.7,32.0,93,79,56,30.41,30.24,2,0,9,0.00
2012-12-15,59.0,49.8,39.8,52.0,41.2,35.0,93,73,46,30.26,30.11,3,0,6,0.00
2012-12-16,64.1,58.2,53.7,61.0,56.5,52.0,97,94,87,30.10,29.87,0,0,6,0.03
2012-12-17,62.0,57.0,55.1,61.0,56.2,54.0,98,97,95,29.92,29.70,7,0,11,0.69
2012-12-18,59.6,53.7,41.9,57.0,45.3,35.0,100,76,43,30.02,29.76,12,1,18,0.01
2012-12-19,67.2,51.9,39.1,46.0,40.4,33.0,81,67,46,30.13,30.01,6,0,9,0.00
2012-12-20,69.7,55.0,42.0,63.0,47.9,32.0,96,78,61,30.12,29.67,11,2,28,0.28
2012-12-21,46.1,41.7,36.7,33.0,26.2,20.0,66,55,47,30.04,29.82,21,5,28,0.00
2012-12-22,54.8,41.8,30.7,26.0,21.0,17.0,59,45,30,30.20,30.04,8,1,18,0.00
2012-12-23,59.0,45.3,31.4,34.0,27.4,19.0,67,51,37,30.21,30.10,5,0,9,0.00
2012-12-24,50.3,47.0,43.9,48.0,40.2,33.0,96,79,59,30.12,29.91,7,0,11,0.01
2012-12-25,51.7,50.2,48.6,51.0,49.4,48.0,97,97,95,30.08,29.91,5,0,11,0.00
2012-12-26,60.6,51.6,38.0,60.0,45.9,30.0,98,82,60,29.90,29.56,14,4,26,0.00
2012-12-27,51.0,40.2,33.5,37.0,32.8,29.0,87,75,57,30.09,29.86,9,1,19,1.98
2012-12-28,52.3,42.6,32.1,40.0,35.5,30.0,93,77,59,30.16,29.94,3,0,8,0.00
2012-12-29,50.5,43.7,36.4,44.0,39.1,30.0,96,84,70,30.11,29.75,10,2,30,0.85
2012-12-30,48.4,37.1,27.6,30.0,26.4,23.0,86,67,42,30.44,30.12,6,0,10,0.00
2012-12-31,57.8,43.4,27.8,45.0,34.3,24.0,89,72,45,30.45,30.20,7,0,10,0.00